Augusta, GA

2:07 AM EDT on August 19, 2017 (GMT -0400)
Daniel

Weather History for KDNL - May, 2014

Change the Weather History Date:

Thursday, May 8, 2014

  Actual Average Record
Temperature  
Mean Temperature 80 °F -  
Max Temperature 94 °F 79 °F 94 °F (2014)
Min Temperature 65 °F 59 °F 53 °F (2007)
Cooling Degree Days 15    
Month to date cooling degree days 76  
Year to date cooling degree days 218  
Growing Degree Days 28 (Base 50)    
Moisture  
Dew Point 58 °F    
Average Humidity 52    
Maximum Humidity 84    
Minimum Humidity 25    
Precipitation  
Precipitation 0.00 in - - ()
Month to date precipitation 0.02  
Year to date precipitation 13.23  
Sea Level Pressure  
Sea Level Pressure 30.16 in    
Wind  
Wind Speed 6 mph (South)    
Max Wind Speed 17 mph    
Max Gust Speed 24 mph    
Visibility 10 miles    
Events      
Averages and records for this station are not official NWS values.
T = Trace of Precipitation, MM = Missing Value Source: NWS Daily Summary

Daily Weather History Graph

Daily Weather History Graph

Search for Another Location

Airport or City:

Trip Planner

Search our weather history database for the weather conditions in past years. The results will help you decide how hot, cold, wet, or windy it might be!

Date:

Astronomy

May. 08, 2014 Rise Set
Actual Time 6:33 AM EDT 8:16 PM EDT
Civil Twilight 6:06 AM EDT 8:43 PM EDT
Nautical Twilight 5:33 AM EDT 9:15 PM EDT
Astronomical Twilight 4:59 AM EDT 9:50 PM EDT
Moon 2:33 PM EDT (5/8) 2:45 AM EDT (5/8)
Length of Visible Light 14h 36m
Length of Day
13h 43m
Waxing Gibbous, 64% of the Moon is Illuminated
May 8
Waxing Gibbous
May 14
Full
May 21
Last Quarter
May 28
New
Jun 5
First Quarter

Hourly Weather History & Observations

Time (EDT) Temp. Heat Index Dew Point Humidity Pressure Visibility Wind Dir Wind Speed Gust Speed Precip Events Conditions
12:53 AM 75.0 °F - 54.0 °F 48% 30.12 in 10.0 mi Calm Calm - N/A   Clear
1:53 AM 69.1 °F - 57.9 °F 68% 30.13 in 10.0 mi Calm Calm - N/A   Clear
2:53 AM 71.1 °F - 55.0 °F 57% 30.12 in 10.0 mi Calm Calm - N/A   Clear
3:53 AM 69.1 °F - 57.9 °F 68% 30.12 in 10.0 mi Calm Calm - N/A   Clear
4:53 AM 68.0 °F - 57.9 °F 70% 30.14 in 10.0 mi Calm Calm - N/A   Clear
5:53 AM 66.0 °F - 59.0 °F 78% 30.15 in 10.0 mi SE 4.6 mph - N/A   Clear
6:53 AM 64.9 °F - 59.0 °F 81% 30.17 in 10.0 mi SE 4.6 mph - N/A   Clear
7:53 AM 68.0 °F - 61.0 °F 78% 30.19 in 10.0 mi SSE 4.6 mph - N/A   Clear
8:53 AM 72.0 °F - 63.0 °F 73% 30.21 in 10.0 mi SSW 4.6 mph - N/A   Clear
9:53 AM 78.1 °F - 64.0 °F 62% 30.22 in 10.0 mi Variable 4.6 mph - N/A   Clear
10:53 AM 82.0 °F 83.0 °F 62.1 °F 51% 30.22 in 10.0 mi SSW 4.6 mph - N/A   Clear
11:53 AM 86.0 °F 86.1 °F 61.0 °F 43% 30.20 in 10.0 mi Variable 6.9 mph - N/A   Clear
12:53 PM 91.0 °F 89.7 °F 57.0 °F 32% 30.20 in 10.0 mi South 12.7 mph 20.7 mph N/A   Scattered Clouds
2:53 PM 91.9 °F 89.5 °F 53.1 °F 27% 30.17 in 10.0 mi SW 12.7 mph 19.6 mph N/A   Partly Cloudy
3:53 PM 91.9 °F - 52.0 °F 26% 30.13 in 10.0 mi SSW 11.5 mph 18.4 mph N/A   Partly Cloudy
5:53 PM 91.9 °F 89.5 °F 54.0 °F 27% 30.11 in 10.0 mi South 9.2 mph - N/A   Clear
6:53 PM 90.0 °F 88.1 °F 55.9 °F 31% 30.11 in 10.0 mi South 11.5 mph - N/A   Clear
7:53 PM 87.1 °F 85.7 °F 55.9 °F 35% 30.13 in 10.0 mi South 5.8 mph - N/A   Clear
8:53 PM 84.0 °F 83.0 °F 55.9 °F 38% 30.14 in 10.0 mi SSW 5.8 mph - N/A   Clear
9:53 PM 81.0 °F 81.0 °F 57.0 °F 44% 30.15 in 10.0 mi SSW 3.5 mph - N/A   Clear
10:53 PM 80.1 °F 80.2 °F 55.9 °F 43% 30.16 in 10.0 mi SSE 3.5 mph - N/A   Clear
11:53 PM 75.0 °F - 60.1 °F 60% 30.16 in 10.0 mi SE 5.8 mph - N/A   Clear